Location: Alsip
(41.6689°N, 87.7387°W)
Time: 15:12:32
(UTC+00:00)

Sich 1 Rocket - Pass Details

Date: 14 July 2020
Orbit: 615 x 653 km, 82.5° (Epoch: 12 August)

Event Time Altitude Azimuth Distance (km) Brightness Sun altitude
Exits shadow 09:45:04 - 193° (SSW) 2,671 6.3 -7.7°
Reaches altitude 10° 09:46:37 10° 196° (SSW) 2,043 5.7 -7.4°
Maximum altitude 09:51:08 68° 278° (W) 697 3.7 -6.8°
Drops below altitude 10° 09:55:39 10° 3° (N) 2,037 6.8 -6.1°
Sets 09:57:54 0° 6° (N) 2,944 7.7 -5.8°
